Time,TemperatureF,DewpointF,PressureIn,WindDirection,WindDirectionDegrees,WindSpeedMPH,WindSpeedGustMPH,Humidity,HourlyPrecipIn,Conditions,Clouds,dailyrainin,SoftwareType,DateUTC
2013-08-19 00:00:00,91.1,60.4,29.74,NNW,331,0.0,19.0,36,0.00,,,0.00,WeatherDisplay:10.37,2013-08-19 07:00:00,
2013-08-19 00:10:00,90.7,60.1,29.74,NNW,330,0.0,0.0,36,0.00,,,0.00,WeatherDisplay:10.37,2013-08-19 07:10:00,
2013-08-19 00:20:00,90.6,60.0,29.74,NE,35,0.0,1.0,36,0.00,,,0.00,WeatherDisplay:10.37,2013-08-19 07:20:00,
2013-08-19 00:30:00,90.6,60.0,29.74,NE,34,0.0,1.0,36,0.00,,,0.00,WeatherDisplay:10.37,2013-08-19 07:30:00,
2013-08-19 00:40:00,90.6,59.2,29.72,NNW,342,0.0,2.0,35,0.00,,,0.00,WeatherDisplay:10.37,2013-08-19 07:40:00,
2013-08-19 00:50:00,90.9,58.7,29.72,North,11,0.0,1.0,34,0.00,,,0.00,WeatherDisplay:10.37,2013-08-19 07:50:00,
2013-08-19 01:00:00,90.9,58.7,29.72,NNE,24,0.0,1.0,34,0.00,,,0.00,WeatherDisplay:10.37,2013-08-19 08:00:00,
2013-08-19 01:10:00,90.7,60.1,29.72,East,94,0.0,1.0,36,0.00,,,0.00,WeatherDisplay:10.37,2013-08-19 08:10:00,
2013-08-19 01:20:00,90.5,60.7,29.73,ESE,108,0.0,1.0,37,0.00,,,0.00,WeatherDisplay:10.37,2013-08-19 08:20:00,
2013-08-19 01:30:00,90.1,60.3,29.73,ESE,102,0.0,1.0,37,0.00,,,0.00,WeatherDisplay:10.37,2013-08-19 08:30:00,
2013-08-19 01:40:00,89.7,60.7,29.74,East,97,0.0,2.0,38,0.00,,,0.00,WeatherDisplay:10.37,2013-08-19 08:40:00,
2013-08-19 01:50:00,89.2,61.0,29.74,ESE,121,1.0,6.0,39,0.00,,,0.00,WeatherDisplay:10.37,2013-08-19 08:50:00,
2013-08-19 02:00:00,88.8,60.7,29.75,SW,217,0.0,2.0,39,0.00,,,0.00,WeatherDisplay:10.37,2013-08-19 09:00:00,
2013-08-19 02:10:00,88.4,61.7,29.74,WSW,257,0.0,0.0,41,0.00,,,0.00,WeatherDisplay:10.37,2013-08-19 09:10:00,
2013-08-19 02:20:00,87.8,60.5,29.74,WSW,257,0.0,0.0,40,0.00,,,0.00,WeatherDisplay:10.37,2013-08-19 09:20:00,
2013-08-19 02:30:00,87.6,60.3,29.74,West,260,0.0,0.0,40,0.00,,,0.00,WeatherDisplay:10.37,2013-08-19 09:30:00,
2013-08-19 02:40:00,87.4,59.4,29.74,West,261,0.0,0.0,39,0.00,,,0.00,WeatherDisplay:10.37,2013-08-19 09:40:00,
2013-08-19 02:50:00,87.2,59.2,29.74,West,262,0.0,0.0,39,0.00,,,0.00,WeatherDisplay:10.37,2013-08-19 09:50:00,
2013-08-19 03:00:00,87.3,59.3,29.73,West,261,0.0,1.0,39,0.00,,,0.00,WeatherDisplay:10.37,2013-08-19 10:00:00,
2013-08-19 03:10:00,86.9,58.9,29.74,West,262,0.0,0.0,39,0.00,,,0.00,WeatherDisplay:10.37,2013-08-19 10:10:00,
2013-08-19 03:20:00,86.6,59.4,29.73,West,262,0.0,0.0,40,0.00,,,0.00,WeatherDisplay:10.37,2013-08-19 10:20:00,
2013-08-19 03:30:00,86.7,58.8,29.73,West,271,0.0,1.0,39,0.00,,,0.00,WeatherDisplay:10.37,2013-08-19 10:30:00,
2013-08-19 03:40:00,86.5,58.6,29.73,WNW,287,0.0,0.0,39,0.00,,,0.00,WeatherDisplay:10.37,2013-08-19 10:40:00,
2013-08-19 03:50:00,85.9,59.5,29.73,WNW,287,0.0,0.0,41,0.00,,,0.00,WeatherDisplay:10.37,2013-08-19 10:50:00,
2013-08-19 04:00:00,85.5,58.4,29.73,WNW,287,0.0,0.0,40,0.00,,,0.00,WeatherDisplay:10.37,2013-08-19 11:00:00,
2013-08-19 04:10:00,85.8,59.4,29.73,WNW,287,0.0,0.0,41,0.00,,,0.00,WeatherDisplay:10.37,2013-08-19 11:10:00,
2013-08-19 04:20:00,86.0,59.6,29.73,WNW,287,0.0,0.0,41,0.00,,,0.00,WeatherDisplay:10.37,2013-08-19 11:20:00,
2013-08-19 04:30:00,86.0,58.1,29.74,WNW,287,0.0,0.0,39,0.00,,,0.00,WeatherDisplay:10.37,2013-08-19 11:30:00,
2013-08-19 04:40:00,86.1,59.0,29.74,WNW,288,0.0,0.0,40,0.00,,,0.00,WeatherDisplay:10.37,2013-08-19 11:40:00,
2013-08-19 04:50:00,86.6,60.1,29.74,SSE,151,0.0,2.0,41,0.00,,,0.00,WeatherDisplay:10.37,2013-08-19 11:50:00,
2013-08-19 05:00:00,86.3,59.8,29.74,SE,129,0.0,1.0,41,0.00,,,0.00,WeatherDisplay:10.37,2013-08-19 12:00:00,
2013-08-19 05:10:00,86.3,59.1,29.74,ESE,108,0.0,0.0,40,0.00,,,0.00,WeatherDisplay:10.37,2013-08-19 12:10:00,
2013-08-19 05:20:00,86.1,59.6,29.74,ESE,109,0.0,0.0,41,0.00,,,0.00,WeatherDisplay:10.37,2013-08-19 12:20:00,
2013-08-19 05:30:00,85.5,59.1,29.74,ESE,108,0.0,0.0,41,0.00,,,0.00,WeatherDisplay:10.37,2013-08-19 12:30:00,
2013-08-19 05:40:00,85.3,59.6,29.74,ESE,108,0.0,0.0,42,0.00,,,0.00,WeatherDisplay:10.37,2013-08-19 12:40:00,
2013-08-19 05:50:00,84.8,58.5,29.75,ESE,108,0.0,0.0,41,0.00,,,0.00,WeatherDisplay:10.37,2013-08-19 12:50:00,
2013-08-19 06:00:00,84.5,58.9,29.75,ESE,108,0.0,0.0,42,0.00,,,0.00,WeatherDisplay:10.37,2013-08-19 13:00:00,
2013-08-19 06:10:00,84.6,60.2,29.76,ESE,108,0.0,1.0,44,0.00,,,0.00,WeatherDisplay:10.37,2013-08-19 13:10:00,
2013-08-19 06:20:00,85.0,60.0,29.76,ESE,115,0.0,1.0,43,0.00,,,0.00,WeatherDisplay:10.37,2013-08-19 13:20:00,
2013-08-19 06:30:00,84.7,60.3,29.76,ESE,116,0.0,0.0,44,0.00,,,0.00,WeatherDisplay:10.37,2013-08-19 13:30:00,
2013-08-19 06:40:00,84.6,61.5,29.76,ESE,116,0.0,0.0,46,0.00,,,0.00,WeatherDisplay:10.37,2013-08-19 13:40:00,
2013-08-19 06:50:00,84.4,60.7,29.77,ESE,115,0.0,0.0,45,0.00,,,0.00,WeatherDisplay:10.37,2013-08-19 13:50:00,
2013-08-19 07:00:00,84.7,61.0,29.77,ESE,115,0.0,0.0,45,0.00,,,0.00,WeatherDisplay:10.37,2013-08-19 14:00:00,
2013-08-19 07:10:00,85.1,61.4,29.78,ESE,116,0.0,0.0,45,0.00,,,0.00,WeatherDisplay:10.37,2013-08-19 14:10:00,
2013-08-19 07:20:00,85.5,63.0,29.77,ESE,116,0.0,0.0,47,0.00,,,0.00,WeatherDisplay:10.37,2013-08-19 14:20:00,
2013-08-19 07:30:00,86.0,61.6,29.78,ESE,116,0.0,0.0,44,0.00,,,0.00,WeatherDisplay:10.37,2013-08-19 14:30:00,
2013-08-19 07:40:00,86.8,61.6,29.78,ESE,115,0.0,0.0,43,0.00,,,0.00,WeatherDisplay:10.37,2013-08-19 14:40:00,
2013-08-19 07:50:00,87.7,61.8,29.78,ESE,115,0.0,0.0,42,0.00,,,0.00,WeatherDisplay:10.37,2013-08-19 14:50:00,
2013-08-19 08:00:00,88.6,61.9,29.78,ESE,115,0.0,0.0,41,0.00,,,0.00,WeatherDisplay:10.37,2013-08-19 15:00:00,
2013-08-19 08:10:00,89.4,60.4,29.77,ESE,116,0.0,0.0,38,0.00,,,0.00,WeatherDisplay:10.37,2013-08-19 15:10:00,
2013-08-19 08:20:00,90.0,59.5,29.78,ESE,115,0.0,0.0,36,0.00,,,0.00,WeatherDisplay:10.37,2013-08-19 15:20:00,
2013-08-19 08:30:00,90.7,58.5,29.78,ESE,116,0.0,0.0,34,0.00,,,0.00,WeatherDisplay:10.37,2013-08-19 15:30:00,
2013-08-19 08:40:00,90.7,59.3,29.79,ESE,115,0.0,1.0,35,0.00,,,0.00,WeatherDisplay:10.37,2013-08-19 15:40:00,
2013-08-19 08:50:00,91.1,59.6,29.78,ESE,115,0.0,1.0,35,0.00,,,0.00,WeatherDisplay:10.37,2013-08-19 15:50:00,
2013-08-19 09:00:00,91.5,60.0,29.79,SE,131,0.0,0.0,35,0.00,,,0.00,WeatherDisplay:10.37,2013-08-19 16:00:00,
2013-08-19 09:10:00,92.4,59.1,29.78,SE,140,0.0,2.0,33,0.00,,,0.00,WeatherDisplay:10.37,2013-08-19 16:10:00,
2013-08-19 09:20:00,93.2,58.1,29.78,SE,124,1.0,2.0,31,0.00,,,0.00,WeatherDisplay:10.37,2013-08-19 16:20:00,
2013-08-19 09:30:00,93.6,58.4,29.78,SE,127,0.0,1.0,31,0.00,,,0.00,WeatherDisplay:10.37,2013-08-19 16:30:00,
2013-08-19 09:40:00,94.3,60.8,29.77,SE,124,0.0,1.0,33,0.00,,,0.00,WeatherDisplay:10.37,2013-08-19 16:40:00,
2013-08-19 09:50:00,95.6,60.2,29.78,South,186,0.0,2.0,31,0.00,,,0.00,WeatherDisplay:10.37,2013-08-19 16:50:00,
2013-08-19 10:00:00,96.6,58.2,29.78,SSE,150,0.0,1.0,28,0.00,,,0.00,WeatherDisplay:10.37,2013-08-19 17:00:00,
2013-08-19 10:10:00,97.8,58.2,29.78,East,95,0.0,2.0,27,0.00,,,0.00,WeatherDisplay:10.37,2013-08-19 17:10:00,
2013-08-19 10:20:00,98.0,59.4,29.78,ESE,113,0.0,5.0,28,0.00,,,0.00,WeatherDisplay:10.37,2013-08-19 17:20:00,
2013-08-19 10:30:00,99.4,59.5,29.77,ESE,113,0.0,4.0,27,0.00,,,0.00,WeatherDisplay:10.37,2013-08-19 17:30:00,
2013-08-19 10:40:00,99.8,56.6,29.77,ESE,111,1.0,4.0,24,0.00,,,0.00,WeatherDisplay:10.37,2013-08-19 17:40:00,
2013-08-19 10:50:00,100.4,57.1,29.78,South,184,1.0,5.0,24,0.00,,,0.00,WeatherDisplay:10.37,2013-08-19 17:50:00,
2013-08-19 11:00:00,100.9,58.6,29.77,SSE,149,0.0,2.0,25,0.00,,,0.00,WeatherDisplay:10.37,2013-08-19 18:00:00,
2013-08-19 11:10:00,101.9,57.1,29.77,East,83,2.0,4.0,23,0.00,,,0.00,WeatherDisplay:10.37,2013-08-19 18:10:00,
2013-08-19 11:20:00,102.9,56.8,29.77,ESE,122,1.0,3.0,22,0.00,,,0.00,WeatherDisplay:10.37,2013-08-19 18:20:00,
2013-08-19 11:30:00,102.7,55.3,29.76,SE,130,1.0,6.0,21,0.00,,,0.00,WeatherDisplay:10.37,2013-08-19 18:30:00,
2013-08-19 11:40:00,103.0,56.8,29.76,SE,135,2.0,7.0,22,0.00,,,0.00,WeatherDisplay:10.37,2013-08-19 18:40:00,
2013-08-19 11:50:00,103.3,55.8,29.76,SE,139,0.0,4.0,21,0.00,,,0.00,WeatherDisplay:10.37,2013-08-19 18:50:00,
2013-08-19 12:00:00,104.5,56.8,29.75,East,95,0.0,3.0,21,0.00,,,0.00,WeatherDisplay:10.37,2013-08-19 19:00:00,
2013-08-19 12:10:00,104.3,56.6,29.75,SW,220,1.0,6.0,21,0.00,,,0.00,WeatherDisplay:10.37,2013-08-19 19:10:00,
2013-08-19 12:20:00,104.1,56.4,29.75,WSW,256,1.0,7.0,21,0.00,,,0.00,WeatherDisplay:10.37,2013-08-19 19:20:00,
2013-08-19 12:30:00,105.0,55.8,29.75,SSE,161,3.0,7.0,20,0.00,,,0.00,WeatherDisplay:10.37,2013-08-19 19:30:00,
2013-08-19 12:40:00,105.1,54.5,29.73,ESE,106,1.0,5.0,19,0.00,,,0.00,WeatherDisplay:10.37,2013-08-19 19:40:00,
2013-08-19 12:50:00,105.0,54.4,29.73,SSE,168,0.0,6.0,19,0.00,,,0.00,WeatherDisplay:10.37,2013-08-19 19:50:00,
2013-08-19 13:00:00,105.8,55.1,29.73,South,187,1.0,5.0,19,0.00,,,0.00,WeatherDisplay:10.37,2013-08-19 20:00:00,
2013-08-19 13:10:00,106.6,55.7,29.72,South,181,2.0,6.0,19,0.00,,,0.00,WeatherDisplay:10.37,2013-08-19 20:10:00,
2013-08-19 13:20:00,106.4,55.5,29.72,South,177,2.0,5.0,19,0.00,,,0.00,WeatherDisplay:10.37,2013-08-19 20:20:00,
2013-08-19 13:30:00,105.4,54.8,29.70,SE,145,1.0,5.0,19,0.00,,,0.00,WeatherDisplay:10.37,2013-08-19 20:30:00,
2013-08-19 13:40:00,106.8,57.3,29.70,West,277,1.0,3.0,20,0.00,,,0.00,WeatherDisplay:10.37,2013-08-19 20:40:00,
2013-08-19 13:50:00,106.9,54.5,29.69,WSW,248,2.0,6.0,18,0.00,,,0.00,WeatherDisplay:10.37,2013-08-19 20:50:00,
2013-08-19 14:00:00,106.8,55.9,29.69,West,271,0.0,2.0,19,0.00,,,0.00,WeatherDisplay:10.37,2013-08-19 21:00:00,
2013-08-19 14:10:00,107.5,53.3,29.69,SW,218,0.0,6.0,17,0.00,,,0.00,WeatherDisplay:10.37,2013-08-19 21:10:00,
2013-08-19 14:20:00,107.6,55.0,29.68,ESE,122,1.0,6.0,18,0.00,,,0.00,WeatherDisplay:10.37,2013-08-19 21:20:00,
2013-08-19 14:40:00,107.6,51.8,29.67,SW,235,1.0,5.0,16,0.00,,,0.00,WeatherDisplay:10.37,2013-08-19 21:40:00,
2013-08-19 14:50:00,107.0,53.0,29.66,WNW,285,0.0,4.0,17,0.00,,,0.00,WeatherDisplay:10.37,2013-08-19 21:50:00,
2013-08-19 15:00:00,107.1,51.4,29.67,South,180,3.0,5.0,16,0.00,,,0.00,WeatherDisplay:10.37,2013-08-19 22:00:00,
2013-08-19 15:10:00,107.7,51.9,29.65,SE,134,2.0,6.0,16,0.00,,,0.00,WeatherDisplay:10.37,2013-08-19 22:10:00,
2013-08-19 15:20:00,108.1,50.5,29.66,West,270,3.0,6.0,15,0.00,,,0.00,WeatherDisplay:10.37,2013-08-19 22:20:00,
2013-08-19 15:30:00,108.4,52.4,29.65,SW,236,0.0,4.0,16,0.00,,,0.00,WeatherDisplay:10.37,2013-08-19 22:30:00,
2013-08-19 15:40:00,108.8,51.0,29.64,South,182,1.0,7.0,15,0.00,,,0.00,WeatherDisplay:10.37,2013-08-19 22:40:00,
2013-08-19 15:50:00,108.8,51.0,29.64,SE,132,2.0,5.0,15,0.00,,,0.00,WeatherDisplay:10.37,2013-08-19 22:50:00,
2013-08-19 16:00:00,108.5,52.5,29.63,SSE,151,0.0,7.0,16,0.00,,,0.00,WeatherDisplay:10.37,2013-08-19 23:00:00,
2013-08-19 16:10:00,108.8,51.0,29.63,SSW,201,1.0,4.0,15,0.00,,,0.00,WeatherDisplay:10.37,2013-08-19 23:10:00,
2013-08-19 16:20:00,110.2,53.8,29.63,SE,136,0.0,2.0,16,0.00,,,0.00,WeatherDisplay:10.37,2013-08-19 23:20:00,
2013-08-19 16:30:00,110.5,54.1,29.62,East,89,0.0,2.0,16,0.00,,,0.00,WeatherDisplay:10.37,2013-08-19 23:30:00,
2013-08-19 16:40:00,110.1,50.2,29.62,East,99,7.0,14.0,14,0.00,,,0.00,WeatherDisplay:10.37,2013-08-19 23:40:00,
2013-08-19 16:50:00,108.8,51.0,29.62,WNW,285,1.0,15.0,15,0.00,,,0.00,WeatherDisplay:10.37,2013-08-19 23:50:00,
2013-08-19 17:00:00,109.2,53.1,29.62,NW,312,0.0,15.0,16,0.00,,,0.00,WeatherDisplay:10.37,2013-08-20 00:00:00,
2013-08-19 17:10:00,109.4,53.2,29.62,NW,322,0.0,15.0,16,0.00,,,0.00,WeatherDisplay:10.37,2013-08-20 00:10:00,
2013-08-19 17:20:00,109.0,52.9,29.62,NW,308,2.0,15.0,16,0.00,,,0.00,WeatherDisplay:10.37,2013-08-20 00:20:00,
2013-08-19 17:30:00,107.5,51.7,29.62,WNW,288,1.0,15.0,16,0.00,,,0.00,WeatherDisplay:10.37,2013-08-20 00:30:00,
2013-08-19 17:40:00,106.5,50.9,29.62,West,280,2.0,15.0,16,0.00,,,0.00,WeatherDisplay:10.37,2013-08-20 00:40:00,
2013-08-19 17:50:00,105.8,50.4,29.62,West,276,2.0,15.0,16,0.00,,,0.00,WeatherDisplay:10.37,2013-08-20 00:50:00,
2013-08-19 18:00:00,104.9,51.3,29.61,West,268,0.0,15.0,17,0.00,,,0.00,WeatherDisplay:10.37,2013-08-20 01:00:00,
2013-08-19 18:10:00,104.1,52.2,29.61,WNW,282,1.0,15.0,18,0.00,,,0.00,WeatherDisplay:10.37,2013-08-20 01:10:00,
2013-08-19 18:20:00,104.3,52.4,29.62,West,275,0.0,15.0,18,0.00,,,0.00,WeatherDisplay:10.37,2013-08-20 01:20:00,
2013-08-19 18:30:00,104.5,54.0,29.62,WNW,284,1.0,15.0,19,0.00,,,0.00,WeatherDisplay:10.37,2013-08-20 01:30:00,
2013-08-19 18:40:00,104.3,53.9,29.62,NW,304,3.0,15.0,19,0.00,,,0.00,WeatherDisplay:10.37,2013-08-20 01:40:00,
2013-08-19 18:50:00,103.3,54.4,29.61,West,279,2.0,15.0,20,0.00,,,0.00,WeatherDisplay:10.37,2013-08-20 01:50:00,
2013-08-19 19:00:00,102.6,52.5,29.62,WNW,287,2.0,15.0,19,0.00,,,0.00,WeatherDisplay:10.37,2013-08-20 02:00:00,
2013-08-19 19:10:00,102.2,52.1,29.62,WNW,287,0.0,15.0,19,0.00,,,0.00,WeatherDisplay:10.37,2013-08-20 02:10:00,
2013-08-19 19:20:00,101.9,51.9,29.62,NW,316,1.0,15.0,19,0.00,,,0.00,WeatherDisplay:10.37,2013-08-20 02:20:00,
2013-08-19 19:30:00,101.4,51.5,29.63,NNW,335,0.0,15.0,19,0.00,,,0.00,WeatherDisplay:10.37,2013-08-20 02:30:00,
2013-08-19 19:40:00,101.2,51.3,29.63,NW,321,0.0,15.0,19,0.00,,,0.00,WeatherDisplay:10.37,2013-08-20 02:40:00,
2013-08-19 19:50:00,101.0,51.2,29.63,NW,326,0.0,15.0,19,0.00,,,0.00,WeatherDisplay:10.37,2013-08-20 02:50:00,
2013-08-19 20:00:00,100.5,50.8,29.62,NW,319,0.0,15.0,19,0.00,,,0.00,WeatherDisplay:10.37,2013-08-20 03:00:00,
2013-08-19 20:10:00,100.0,50.3,29.63,WNW,291,0.0,15.0,19,0.00,,,0.00,WeatherDisplay:10.37,2013-08-20 03:10:00,
2013-08-19 20:20:00,99.6,50.0,29.63,WNW,290,0.0,1.0,19,0.00,,,0.00,WeatherDisplay:10.37,2013-08-20 03:20:00,
2013-08-19 20:30:00,99.7,50.1,29.63,WNW,283,0.0,1.0,19,0.00,,,0.00,WeatherDisplay:10.37,2013-08-20 03:30:00,
2013-08-19 20:40:00,99.3,49.8,29.63,West,274,0.0,15.0,19,0.00,,,0.00,WeatherDisplay:10.37,2013-08-20 03:40:00,
2013-08-19 20:50:00,99.2,49.7,29.64,West,268,0.0,15.0,19,0.00,,,0.00,WeatherDisplay:10.37,2013-08-20 03:50:00,
2013-08-19 21:00:00,99.1,49.6,29.65,West,262,0.0,15.0,19,0.00,,,0.00,WeatherDisplay:10.37,2013-08-20 04:00:00,
2013-08-19 21:10:00,98.5,50.5,29.65,West,266,0.0,15.0,20,0.00,,,0.00,WeatherDisplay:10.37,2013-08-20 04:10:00,
2013-08-19 21:20:00,98.4,50.4,29.65,West,271,0.0,15.0,20,0.00,,,0.00,WeatherDisplay:10.37,2013-08-20 04:20:00,
2013-08-19 21:30:00,98.5,50.5,29.65,West,272,0.0,15.0,20,0.00,,,0.00,WeatherDisplay:10.37,2013-08-20 04:30:00,
2013-08-19 21:40:00,99.3,51.1,29.66,West,269,1.0,15.0,20,0.00,,,0.00,WeatherDisplay:10.37,2013-08-20 04:40:00,
2013-08-19 21:50:00,99.4,51.3,29.66,West,268,0.0,15.0,20,0.00,,,0.00,WeatherDisplay:10.37,2013-08-20 04:50:00,
2013-08-19 22:00:00,99.5,51.3,29.67,West,271,1.0,15.0,20,0.00,,,0.00,WeatherDisplay:10.37,2013-08-20 05:00:00,
2013-08-19 22:10:00,99.5,51.3,29.67,West,281,2.0,15.0,20,0.00,,,0.00,WeatherDisplay:10.37,2013-08-20 05:10:00,
2013-08-19 22:20:00,98.8,52.0,29.67,West,275,1.0,15.0,21,0.00,,,0.00,WeatherDisplay:10.37,2013-08-20 05:20:00,
2013-08-19 22:30:00,98.8,52.1,29.68,West,274,2.0,15.0,21,0.00,,,0.00,WeatherDisplay:10.37,2013-08-20 05:30:00,
2013-08-19 22:40:00,98.1,51.5,29.68,WNW,302,0.0,15.0,21,0.00,,,0.00,WeatherDisplay:10.37,2013-08-20 05:40:00,
2013-08-19 22:50:00,97.2,52.0,29.68,NW,305,0.0,15.0,22,0.00,,,0.00,WeatherDisplay:10.37,2013-08-20 05:50:00,
2013-08-19 23:00:00,96.6,52.7,29.68,WNW,297,0.0,15.0,23,0.00,,,0.00,WeatherDisplay:10.37,2013-08-20 06:00:00,
2013-08-19 23:10:00,96.5,52.6,29.68,WNW,294,0.0,15.0,23,0.00,,,0.00,WeatherDisplay:10.37,2013-08-20 06:10:00,
2013-08-19 23:20:00,96.1,52.3,29.68,NNW,329,0.0,15.0,23,0.00,,,0.00,WeatherDisplay:10.37,2013-08-20 06:20:00,
2013-08-19 23:30:00,95.8,52.0,29.67,NNW,328,0.0,15.0,23,0.00,,,0.00,WeatherDisplay:10.37,2013-08-20 06:30:00,
2013-08-19 23:40:00,94.9,53.6,29.67,NNW,328,0.0,15.0,25,0.00,,,0.00,WeatherDisplay:10.37,2013-08-20 06:40:00,
2013-08-19 23:50:00,94.0,52.8,29.68,North,350,0.0,15.0,25,0.00,,,0.00,WeatherDisplay:10.37,2013-08-20 06:50:00,